TimeCDT,TemperatureF,Dew PointF,Humidity,Sea Level PressureIn,VisibilityMPH,Wind Direction,Wind SpeedMPH,Gust SpeedMPH,PrecipitationIn,Events,Conditions,WindDirDegrees,DateUTC
12:53 AM,69.1,64.0,84,30.14,7.0,Calm,Calm,-,N/A,,Clear,0,2013-09-06 05:53:00
1:53 AM,68.0,64.0,87,30.14,5.0,Calm,Calm,-,N/A,,Clear,0,2013-09-06 06:53:00
2:53 AM,69.1,64.0,84,30.13,6.0,Calm,Calm,-,N/A,,Haze,0,2013-09-06 07:53:00
3:53 AM,68.0,64.0,87,30.12,5.0,Calm,Calm,-,N/A,,Clear,0,2013-09-06 08:53:00
4:53 AM,66.9,63.0,87,30.12,4.0,Calm,Calm,-,N/A,,Clear,0,2013-09-06 09:53:00
5:53 AM,66.0,62.1,87,30.12,3.0,Calm,Calm,-,N/A,,Clear,0,2013-09-06 10:53:00
6:39 AM,64.4,62.6,94,30.14,1.8,Calm,Calm,-,N/A,,Clear,0,2013-09-06 11:39:00
6:48 AM,66.2,62.6,88,30.15,2.5,NW,3.5,-,N/A,,Clear,320,2013-09-06 11:48:00
6:53 AM,66.0,63.0,90,30.14,3.0,Calm,Calm,-,N/A,,Clear,0,2013-09-06 11:53:00
7:53 AM,70.0,64.9,84,30.14,4.0,Calm,Calm,-,N/A,,Haze,0,2013-09-06 12:53:00
8:53 AM,73.9,66.0,76,30.15,6.0,Calm,Calm,-,N/A,,Haze,0,2013-09-06 13:53:00
9:53 AM,78.1,66.9,68,30.16,9.0,Calm,Calm,-,N/A,,Clear,0,2013-09-06 14:53:00
10:53 AM,81.0,66.9,62,30.16,10.0,ESE,4.6,-,N/A,,Clear,110,2013-09-06 15:53:00
11:53 AM,84.0,66.0,55,30.15,10.0,SSE,5.8,-,N/A,,Clear,150,2013-09-06 16:53:00
12:53 PM,84.9,66.0,53,30.13,10.0,Variable,3.5,-,N/A,,Clear,0,2013-09-06 17:53:00
1:53 PM,86.0,66.0,51,30.11,10.0,SSW,4.6,-,N/A,,Clear,210,2013-09-06 18:53:00
2:53 PM,87.1,66.0,49,30.09,10.0,Variable,3.5,-,N/A,,Clear,0,2013-09-06 19:53:00
3:53 PM,86.0,64.9,49,30.06,10.0,Calm,Calm,-,N/A,,Clear,0,2013-09-06 20:53:00
4:53 PM,86.0,64.9,49,30.06,10.0,SW,4.6,-,N/A,,Clear,220,2013-09-06 21:53:00
5:53 PM,86.0,64.9,49,30.05,10.0,West,3.5,-,N/A,,Clear,260,2013-09-06 22:53:00
6:53 PM,81.0,70.0,69,30.04,10.0,Calm,Calm,-,N/A,,Clear,0,2013-09-06 23:53:00
7:53 PM,75.0,70.0,84,30.04,10.0,Calm,Calm,-,N/A,,Clear,0,2013-09-07 00:53:00
8:53 PM,73.0,69.1,87,30.04,10.0,Calm,Calm,-,N/A,,Clear,0,2013-09-07 01:53:00
9:53 PM,71.1,66.9,87,30.04,5.0,Calm,Calm,-,N/A,,Clear,0,2013-09-07 02:53:00
10:53 PM,70.0,66.9,90,30.04,4.0,Calm,Calm,-,N/A,,Clear,0,2013-09-07 03:53:00
11:43 PM,69.8,66.2,88,30.05,2.0,Calm,Calm,-,N/A,,Clear,0,2013-09-07 04:43:00
11:53 PM,69.1,66.0,90,30.04,3.0,Calm,Calm,-,N/A,,Clear,0,2013-09-07 04:53:00